Location: Newark
(21.1200°N, 73.4000°E)
Time: 14:48:59
(UTC+00:00)

Explorer 11/Cluster Stage 4 - Pass Details

Date: 20 January 2020
Orbit: 467 x 1259 km, 28.8° (Epoch: 26 February)

Event Time Altitude Azimuth Distance (km) Brightness Sun altitude
Rises 07:29:35 0° 210° (SSW) 4,176 10.9 48.6°
Reaches altitude 10° 07:33:14 10° 197° (SSW) 3,226 10.6 48.5°
Maximum altitude 07:39:20 23° 149° (SSE) 2,352 9.9 48.3°
Drops below altitude 10° 07:45:08 10° 101° (E) 3,065 9.7 48.1°
Sets 07:48:29 0° 87° (E) 3,923 10.1 48.0°
